[[{"header":{"parameterUnit":"m.s-1","parameterCategory":1,"la1":30.2991,"la2":30.254,"lo1":-89.0895,"lo2":-89.0444,"dy":0.0017,"dx":0.0017,"nx":28,"ny":28,"refTime":"2024-02-13T09:00:00:Z","depth":0,"parameterNumber":2,"parameterNumberName":"U-component_of_WINDS"},"data":[0,0,0,0,0,0,0,0,0,0,0,0,0,0,0,0,0,0,0,0,0,0,0,0,0,0,0,0,0,0,0,0,0,0,0,0,0,0,0,0,0,0,0,0,0,0,0,0,0,0,0,0,0,0,0,0,0,0,-1.2937,-1.2938,0,-1.2994,-1.2994,-1.2995,-1.2982,-1.2981,-1.298,-1.2979,-1.3039,-1.3042,-1.3044,0,0,0,0,0,0,0,0,0,0,0,0,0,-1.2822,-1.2824,-1.2937,-1.2938,-1.2939,-1.2993,-1.2994,-1.2995,-1.2983,-1.2981,-1.298,-1.2979,-1.3039,-1.3042,-1.3045,0,0,0,0,0,0,0,0,0,0,0,0,0,-1.2874,-1.2825,-1.2937,-1.2939,-1.294,-1.2993,-1.2994,-1.2995,-1.2983,-1.2981,-1.298,-1.2978,-1.3038,-1.3041,-1.3045,-1.3101,0,0,-1.3057,-1.3059,0,0,0,0,0,0,0,0,-1.2871,-1.2879,-1.2938,-1.2939,-1.294,-1.2979,-1.2975,-1.3031,-1.2983,-1.2967,-1.2979,-1.2977,-1.3021,-1.3026,-1.304,-1.3104,-1.3106,-1.3057,-1.306,-1.3061,-1.3062,0,0,0,0,0,0,0,-1.2868,-1.2876,-1.296,-1.2939,-1.294,-1.2938,-1.2944,-1.2986,-1.3002,-1.2968,-1.2967,-1.2974,-1.3021,-1.3036,-1.3041,-1.3107,-1.3057,-1.3061,-1.3063,-1.3065,-1.322,-1.3222,0,0,0,0,0,0,-1.2863,-1.2873,-1.2958,-1.2961,-1.2901,-1.2941,-1.2948,-1.2968,-1.3002,-1.3005,-1.2975,-1.2973,-1.3031,-1.3037,-1.3044,-1.3111,-1.3061,-1.3065,-1.3067,-1.3218,-1.322,-1.3222,0,0,0,0,0,0,-1.286,-1.2871,-1.2955,-1.2917,-1.2928,-1.2945,-1.2968,-1.297,-1.2985,-1.3007,-1.301,-1.2988,-1.303,-1.3038,-1.3087,-1.3113,-1.3067,-1.307,-1.3216,-1.3219,-1.3221,-1.3246,0,0,0,0,0,0,-1.2857,-1.287,-1.2891,-1.2918,-1.293,-1.2997,-1.297,-1.2972,-1.2992,-1.299,-1.3019,-1.3023,-1.3029,-1.3081,-1.309,-1.3117,-1.3073,-1.3214,-1.3217,-1.322,-1.3243,-1.3249,-1.3255,0,0,0,0,0,-1.2853,-1.2896,-1.2892,-1.2902,-1.2956,-1.2998,-1.3006,-1.3011,-1.2994,-1.3015,-1.3029,-1.3022,-1.3109,-1.3086,-1.3097,-1.3125,-1.3212,-1.3216,-1.322,-1.324,-1.3248,-1.3255,0,0,0,0,0,0,-1.2872,-1.2899,-1.2895,-1.2948,-1.2971,-1.2996,-1.3023,-1.3019,-1.3048,-1.3045,-1.3051,-1.3058,-1.3107,-1.3121,-1.3096,-1.3181,-1.3158,-1.3164,-1.317,-1.3177,-1.3183,-1.3178,-1.3077,0,0,0,0,0,-1.2883,-1.2914,-1.2936,-1.2981,-1.2992,-1.3006,-1.3025,-1.3027,-1.3051,-1.3061,-1.3079,-1.3103,-1.3136,-1.3158,-1.3189,-1.3245,-1.3252,-1.327,-1.3276,-1.3281,-1.3286,-1.3317,-1.3325,-1.3235,-1.3235,-1.3235,0,0,-1.2904,-1.2923,-1.2943,-1.2985,-1.3003,-1.3036,-1.3014,-1.305,-1.3075,-1.3067,-1.3113,-1.3127,-1.3156,-1.3208,-1.3232,-1.3221,-1.3312,-1.3286,-1.3289,-1.3292,-1.3322,-1.333,-1.3338,-1.3238,-1.3238,-1.3237,0,0,-1.296,-1.2978,-1.3016,-1.3035,-1.3062,-1.3071,-1.308,-1.3107,-1.3115,-1.3162,-1.3157,-1.3187,-1.3243,-1.3263,-1.3281,-1.3345,-1.3339,-1.3355,-1.3386,-1.3416,-1.3423,-1.3429,-1.3452,-1.346,-1.3361,-1.3361,-1.3361,0,-1.2984,-1.3033,-1.3037,-1.3073,-1.3092,-1.3086,-1.3125,-1.3144,-1.318,-1.3194,-1.3181,-1.3251,-1.327,-1.3327,-1.3343,-1.3357,-1.3369,-1.3352,-1.3421,-1.3427,-1.3433,-1.3455,-1.3464,-1.3362,-1.3362,-1.3362,-1.3362,0,-1.306,-1.3094,-1.3122,-1.3157,-1.3179,-1.3217,-1.3228,-1.325,-1.325,-1.3261,-1.3309,-1.3331,-1.3366,-1.338,-1.3381,-1.3438,-1.343,-1.3419,-1.3396,-1.3444,-1.3464,-1.3472,-1.3365,-1.3364,-1.3364,-1.3363,0,0,-1.313,-1.3166,-1.3176,-1.3192,-1.3222,-1.3249,-1.3287,-1.332,-1.3339,-1.3365,-1.3397,-1.3445,-1.3435,-1.3455,-1.3459,-1.3485,-1.3534,-1.3471,-1.3472,-1.3482,-1.3598,-1.3605,-1.3615,-1.3531,-1.3533,-1.3534,-1.3595,0,-1.3188,-1.3254,-1.3259,-1.3318,-1.335,-1.3344,-1.3378,-1.34,-1.3411,-1.344,-1.3453,-1.3486,-1.3471,-1.3483,-1.3508,-1.3523,-1.3558,-1.3519,-1.3561,-1.3563,-1.3554,-1.3626,-1.3634,-1.369,-1.3603,-1.3605,-1.3606,0,-1.3265,-1.3292,-1.3354,-1.338,-1.3393,-1.3423,-1.3454,-1.3482,-1.3508,-1.3514,-1.3536,-1.3536,-1.3576,-1.3552,-1.3607,-1.358,-1.3598,-1.3608,-1.361,-1.3614,-1.3587,-1.3631,-1.3709,-1.3717,-1.3618,-1.3617,-1.3616,0,-1.3309,-1.3361,-1.3405,-1.3419,-1.3449,-1.347,-1.3484,-1.3508,-1.3528,-1.3556,-1.357,-1.3602,-1.362,-1.3646,-1.3655,-1.3637,-1.371,-1.3686,-1.3716,-1.3716,-1.3731,-1.373,-1.3813,-1.3744,-1.3744,-1.3744,-1.3743,0,-1.3374,-1.3412,-1.3425,-1.3452,-1.3495,-1.3501,-1.3544,-1.3557,-1.3578,-1.3608,-1.3606,-1.3634,-1.3645,-1.3675,-1.3683,-1.3727,-1.3735,-1.3742,-1.3743,-1.3742,-1.3741,-1.3753,-1.3749,-1.3746,-1.3745,-1.3745,-1.3745,0,-1.343,-1.344,-1.3487,-1.3512,-1.352,-1.355,-1.3572,-1.3599,-1.3609,-1.3647,-1.3656,-1.3673,-1.3709,-1.372,-1.3764,-1.3769,-1.3821,-1.3819,-1.3812,-1.3812,-1.3841,-1.3838,-1.3934,-1.3947,-1.387,-1.387,-1.3871,0,-1.347,-1.3499,-1.3527,-1.3546,-1.3561,-1.3592,-1.3613,-1.362,-1.3641,-1.3673,-1.3696,-1.3731,-1.3759,-1.3816,-1.3833,-1.3866,-1.3865,-1.3897,-1.387,-1.3868,-1.3865,-1.3863,-1.3866,-1.3901,-1.3902,-1.3903,-1.3903,0,-1.354,-1.3544,-1.3572,-1.3603,-1.3627,-1.3652,-1.3676,-1.3692,-1.3703,-1.3728,-1.3763,-1.3785,-1.3829,-1.3864,-1.3898,-1.3914,-1.3911,-1.3912,-1.392,-1.3919,-1.3913,-1.3916,-1.3825,-1.3909,-1.3909,-1.3908,-1.3908,-1.3908,-1.3589,-1.3615,-1.3638,-1.3671,-1.3689,-1.3712,-1.3737,-1.3751,-1.3781,-1.3816,-1.3819,-1.3858,-1.3883,-1.3928,-1.3945,-1.3976,-1.3968,-1.398,-1.3983,-1.3986,-1.3988,-1.3908,-1.3983,-1.3983,-1.3982,-1.3982,-1.3982,0,-1.3659,-1.3674,-1.3704,-1.3737,-1.3762,-1.3756,-1.3782,-1.3804,-1.3838,-1.3862,-1.3889,-1.3931,-1.3965,-1.3984,-1.4018,-1.4039,-1.4039,-1.4048,-1.4046,-1.405,-1.3994,-1.3983,-1.4048,-1.4048,-1.4048,-1.4048,-1.4048,-1.4048,-1.3699,-1.3741,-1.3748,-1.38,-1.3815,-1.3852,-1.3868,-1.3888,-1.3907,-1.3953,-1.3981,-1.3993,-1.4015,-1.405,-1.4082,-1.4086,-1.4099,-1.4109,-1.4113,-1.4061,-1.4054,-1.4047,-1.4037,-1.4112,-1.4112,-1.4166,-1.4167,-1.4167]},{"header":{"parameterUnit":"m.s-1","parameterCategory":1,"la1":30.2991,"la2":30.254,"lo1":-89.0895,"lo2":-89.0444,"dy":0.0017,"dx":0.0017,"nx":28,"ny":28,"refTime":"2024-02-13T09:00:00:Z","depth":0,"parameterNumber":3,"parameterNumberName":"V-component_of_WINDS"},"data":[0,0,0,0,0,0,0,0,0,0,0,0,0,0,0,0,0,0,0,0,0,0,0,0,0,0,0,0,0,0,0,0,0,0,0,0,0,0,0,0,0,0,0,0,0,0,0,0,0,0,0,0,0,0,0,0,0,0,1.563,1.563,0,1.5708,1.5709,1.571,1.5714,1.5713,1.5712,1.5711,1.5788,1.579,1.5793,0,0,0,0,0,0,0,0,0,0,0,0,0,1.5478,1.5481,1.5629,1.563,1.5631,1.5708,1.5709,1.571,1.5714,1.5713,1.5712,1.5711,1.5787,1.579,1.5793,0,0,0,0,0,0,0,0,0,0,0,0,0,1.5549,1.5481,1.5629,1.5643,1.5645,1.5708,1.5709,1.571,1.5714,1.5713,1.5712,1.571,1.5786,1.579,1.5794,1.5848,0,0,1.5807,1.5809,0,0,0,0,0,0,0,0,1.5545,1.5554,1.564,1.5642,1.5644,1.57,1.5684,1.5756,1.5715,1.5688,1.5711,1.571,1.5759,1.5766,1.5783,1.5851,1.5855,1.5808,1.581,1.5812,1.5813,0,0,0,0,0,0,0,1.554,1.5551,1.566,1.5641,1.5644,1.5643,1.5652,1.5697,1.573,1.569,1.5691,1.57,1.576,1.5779,1.5785,1.5856,1.5807,1.5811,1.5814,1.5816,1.597,1.5972,0,0,0,0,0,0,1.5533,1.5547,1.5658,1.5663,1.559,1.5647,1.5657,1.5683,1.573,1.5735,1.5701,1.57,1.5772,1.578,1.5788,1.5853,1.5812,1.5816,1.5818,1.5969,1.5971,1.5972,0,0,0,0,0,0,1.553,1.5543,1.5655,1.5605,1.5619,1.5651,1.5681,1.5686,1.5705,1.5738,1.5743,1.5715,1.5772,1.5782,1.5833,1.5856,1.5818,1.5822,1.5967,1.5969,1.5971,1.5984,0,0,0,0,0,0,1.5525,1.5542,1.5563,1.5606,1.5622,1.57,1.5683,1.5688,1.5713,1.5712,1.5752,1.5758,1.5771,1.5826,1.5837,1.5861,1.5825,1.5965,1.5968,1.5971,1.5982,1.5986,1.599,0,0,0,0,0,1.552,1.5563,1.5565,1.5578,1.565,1.5701,1.5711,1.5727,1.5714,1.5736,1.5757,1.5756,1.5852,1.5832,1.5844,1.5869,1.5964,1.5967,1.597,1.598,1.5985,1.599,0,0,0,0,0,0,1.5522,1.5569,1.5571,1.563,1.5662,1.5702,1.573,1.5733,1.5768,1.5765,1.5782,1.5791,1.5842,1.5861,1.5837,1.5923,1.5906,1.5912,1.5909,1.5915,1.5919,1.5913,1.5829,0,0,0,0,0,1.5529,1.5568,1.5607,1.5655,1.5671,1.5697,1.572,1.573,1.5763,1.5776,1.5801,1.5832,1.5869,1.5893,1.5929,1.5984,1.5992,1.6008,1.6012,1.6016,1.602,1.605,1.6057,1.5983,1.5983,1.5983,0,0,1.5544,1.5575,1.5598,1.5656,1.5682,1.572,1.5709,1.575,1.5778,1.5782,1.5832,1.5852,1.5887,1.594,1.5965,1.5958,1.6042,1.602,1.6023,1.6025,1.6054,1.6061,1.6067,1.5986,1.5985,1.5985,0,0,1.5592,1.562,1.5662,1.5689,1.5729,1.5746,1.5756,1.5796,1.5809,1.586,1.5864,1.5897,1.596,1.5985,1.6006,1.6062,1.6062,1.6073,1.6096,1.6125,1.613,1.6136,1.6155,1.6161,1.6078,1.6078,1.6078,0,1.5606,1.5665,1.5683,1.5725,1.5749,1.5756,1.5798,1.5822,1.5871,1.5887,1.5878,1.5958,1.5982,1.6041,1.6055,1.6072,1.6082,1.6069,1.6129,1.6134,1.6139,1.6157,1.6164,1.6079,1.6079,1.6079,1.6079,0,1.5679,1.5721,1.575,1.5798,1.5826,1.5868,1.589,1.5916,1.5923,1.5941,1.5992,1.6021,1.6063,1.6077,1.6084,1.6137,1.6131,1.6125,1.6108,1.6147,1.6164,1.6171,1.6081,1.608,1.608,1.608,0,0,1.573,1.5788,1.5799,1.582,1.5864,1.5896,1.5937,1.5979,1.6,1.6033,1.6067,1.612,1.6115,1.6139,1.6148,1.6174,1.6215,1.6165,1.6166,1.6172,1.6273,1.6277,1.6285,1.6216,1.6217,1.6218,1.627,0,1.5782,1.5857,1.5874,1.5938,1.5976,1.5982,1.6018,1.6048,1.6065,1.6098,1.6117,1.6154,1.6145,1.6159,1.6185,1.6205,1.6235,1.6201,1.6246,1.6247,1.6236,1.6294,1.6298,1.6346,1.6277,1.6278,1.6279,0,1.5853,1.5889,1.5957,1.5995,1.6011,1.6043,1.6083,1.6115,1.6148,1.6159,1.6185,1.6192,1.6234,1.6215,1.6272,1.6248,1.6267,1.628,1.6282,1.6286,1.6265,1.6299,1.6361,1.6368,1.629,1.6289,1.6288,0,1.5882,1.5947,1.5996,1.6014,1.6061,1.6083,1.6103,1.6135,1.6159,1.6193,1.6208,1.6246,1.6266,1.6294,1.631,1.6296,1.6365,1.6348,1.6374,1.6373,1.6387,1.6386,1.6453,1.6401,1.6401,1.6401,1.6401,0,1.5937,1.5978,1.601,1.604,1.6085,1.6104,1.6148,1.6167,1.6196,1.6229,1.6236,1.6266,1.6287,1.6319,1.6332,1.6376,1.6385,1.6394,1.6396,1.6393,1.6391,1.6405,1.6401,1.6403,1.6402,1.6402,1.6402,0,1.5977,1.6,1.6054,1.6094,1.6104,1.6136,1.6169,1.6198,1.6215,1.6256,1.6267,1.6294,1.6333,1.6352,1.64,1.6408,1.6457,1.6459,1.6447,1.6447,1.6471,1.6468,1.6548,1.6559,1.6501,1.6502,1.6502,0,1.6011,1.6043,1.6086,1.6109,1.613,1.6167,1.6192,1.6211,1.6236,1.6276,1.6299,1.6338,1.6371,1.6431,1.6454,1.6491,1.6492,1.6517,1.6497,1.6492,1.6491,1.6489,1.6491,1.6521,1.6521,1.6522,1.6522,0,1.6068,1.6078,1.6113,1.6153,1.6182,1.6214,1.6245,1.6263,1.6287,1.6314,1.6355,1.638,1.6429,1.6467,1.6505,1.6524,1.6526,1.6528,1.6536,1.6532,1.6523,1.6527,1.6455,1.6526,1.6526,1.6525,1.6525,1.6525,1.6105,1.6133,1.6168,1.6208,1.6233,1.6262,1.6291,1.6312,1.6347,1.6389,1.6397,1.644,1.6471,1.6522,1.6542,1.6574,1.6569,1.658,1.6583,1.6585,1.6586,1.6519,1.6581,1.6581,1.6581,1.6581,1.6581,0,1.6162,1.6184,1.622,1.6264,1.6295,1.6296,1.6331,1.6356,1.6393,1.6423,1.6455,1.65,1.6537,1.6563,1.66,1.6621,1.6623,1.663,1.6628,1.6632,1.6589,1.6578,1.6628,1.6628,1.6628,1.6628,1.6628,1.6628,1.6194,1.6242,1.6256,1.6315,1.6337,1.638,1.6399,1.6425,1.6449,1.65,1.6531,1.6548,1.6576,1.6615,1.6649,1.6655,1.6668,1.6675,1.6681,1.664,1.6635,1.6631,1.6621,1.6678,1.6678,1.6722,1.6722,1.6722]}]]